Regional Weather Roundup
Issued by NWS

Home | Current Version | Previous Version | Text Only | Print | Product List | Glossary On
Versions: 1 2 3 4 5 6 7 8 9 10 11 12 13 14 15 16 17 18 19 20 21 22 23 24 25 26 27 28 29 30 31 32 33 34 35 36 37 38 39 40 41 42 43 44 45 46 47 48 49 50
000
ASMX46 KSGX 221304
RWRMX

MEXICAN WEATHER ROUNDUP
NATIONAL WEATHER SERVICE SAN DIEGO CA
600 AM PDT SAT JUL 22 2017

BAJA CALIFORNIA

CITY           SKY/WX    TMP DP  RH WIND       PRES   REMARKS
ENSENADA NW      N/A     67  32  26 CALM      29.88S
MEXICALI       PTCLDY    81  66  61 SE2       29.78
S.J. DEL CABO  CLEAR     79  63  57 CALM      29.89
TIJUANA        CLOUDY    66  64  94 CALM      29.94R

NORTHWESTERN MEXICO

CITY           SKY/WX    TMP DP  RH WIND       PRES   REMARKS
CULIACAN       CLOUDY    81  72  74 CALM      29.91R
HERMOSILLO     MOCLDY    86  75  70 E7        29.90R HX  95
LOS MOCHIS     MOCLDY    81  70  69 E7        29.88
OBREGON        MOCLDY    81  75  83 E8        29.85

NORTHEASTERN MEXICO

CITY           SKY/WX    TMP DP  RH WIND       PRES   REMARKS
MONCLOVA         N/A    N/A N/A N/A MISG        N/A
MONTERREY      PTSUNNY   77  70  78 E5        29.96R
REYNOSA        MOSUNNY   79  72  78 SE8       29.93R
SALTILLO       SUNNY     72  64  78 S14       30.21S
TORREON        PTCLDY    73  64  73 CALM      30.10
VICTORIA       SUNNY     77  70  78 S17       29.95R

WESTERN MEXICO

CITY           SKY/WX    TMP DP  RH WIND       PRES   REMARKS
AGUASCALIENTES PTCLDY    57  55  94 N6        30.31S
COLIMA         PTCLDY    72  66  83 CALM      30.03R
DURANGO        MOCLDY    59  59 100 SE5       30.28
GUADALAJARA    MOCLDY    63  59  88 CALM      30.21S
MANZANILLO     PTCLDY    75  73  94 CALM      29.85
MAZATLAN       LGT RAIN  73  72  94 N9        29.90S
PTO. VALLARTA  CLOUDY    75  75 100 N5        29.86S
TEPIC          MOCLDY    66  63  88 SE7       30.04
URUAPAN        MOCLDY    59  57  94 CALM      30.19R
ZACATECAS      PTCLDY    54  48  82 CALM      30.34R

CENTRAL MEXICO

CITY           SKY/WX    TMP DP  RH WIND       PRES   REMARKS
CUERNAVACA       N/A    N/A N/A N/A MISG        N/A
LEON           PTCLDY    61  57  88 NE6       30.32S
MEXICO CITY    MOSUNNY   59  52  77 NW5       30.37R
MORELIA        CLOUDY    57  57 100 CALM      30.27R FOG
POZA RICA      PTSUNNY   77  77 100 NW5       30.00R FOG
QUERETARO      MOCLDY    59  57  94 SE5       30.33R
S. LUIS POTOSI CLEAR     55  55 100 SW5       30.30
TAMPICO        MOSUNNY   77  75  94 CALM      29.98R
TOLUCA         MOCLDY    46  45  93 CALM      30.40
VERACRUZ       MOSUNNY   75  73  94 N5        29.98R

SOUTHERN MEXICO

CITY           SKY/WX    TMP DP  RH WIND       PRES   REMARKS
ACAPULCO       CLOUDY    81  73  78 NW9       29.83S
B. DE HUATULCO MOSUNNY  N/A N/A N/A CALM      29.91R
MINATITLAN     PTSUNNY   81  77  89 N6        29.92R
OAXACA         PTSUNNY   57  55  94 CALM      30.25R
PTO. ESCONDIDO PTSUNNY   77  70  78 E8        29.96R
TAPACHULA      CLOUDY    75  75 100 NW7       29.88R
TUX. GUTIERREZ PTSUNNY   73  72  94 W3        29.98
VILLAHERMOSA   PTSUNNY   77  75  94 E7        29.96
ZIHUATANEJO    MOCLDY    77  72  83 CALM      29.87

YUCATAN PENINSULA

CITY           SKY/WX    TMP DP  RH WIND       PRES   REMARKS
CAMPECHE       MOSUNNY   75  75 100 E6        29.96R
CANCUN         MOSUNNY   79  79 100 CALM      30.04R
CHETUMAL       PTSUNNY   84  77  79 CALM      29.99R
C. DEL CARMEN  PTSUNNY  N/A N/A N/A E17       29.97R
COZUMEL        MOSUNNY   81  77  89 E5        30.01R
MERIDA         CLOUDY    79  75  89 E7        30.01R

$$




USA.gov is the U.S. government's official web portal to all federal, state and local government web resources and services.